Miscellaneous Local Product
Issued by NWS North Platte, NE

Home | Current Version | Previous Version | Graphics & Text | Print | Product List | Glossary On
Versions: 1 2 3 4 5 6 7 8 9 10 11 12 13 14 15 16 17 18 19 20 21 22 23 24 25 26 27 28 29 30 31 32 33 34 35 36 37 38 39 40 41 42 43 44 45 46 47 48 49 50
000
AXUS43 KLBF 281610
MISLBF


WESTERN AND NORTH CENTRAL NEBRASKA HOURLY WEATHER ROUNDUP
NATIONAL WEATHER SERVICE NORTH PLATTE NE
1000 AM CST FRI NOV 28 2014

***STATIONS NOT REPORTING VARIABLES SUCH AS SKY/WEATHER OR
PRESSURE ARE PROVIDED BY THE NEBRASKA DEPARTMENT OF
ROADS...RAWS...AND APRS NETWORKS...AND ARE NOT UNDER
NATIONAL WEATHER SERVICE QUALITY CONTROL***

...OBSERVATIONS IN AND NEAR THE EASTERN PANHANDLE OF NEBRASKA...

CITY           SKY/WX    TMP DP  RH WIND       PRES   REMARKS
PINE RIDGE     MOSUNNY   46  29  51 SW9       29.76S
CHADRON        PTSUNNY  N/A N/A N/A CALM      29.78R
ALLIANCE       SUNNY     53  26  35 W9        29.80S
SIDNEY         MOSUNNY   52  25  35 W14       29.87F
WHITECLAY        N/A     49  26  40 W12         N/A
CRESCENT LAKE    N/A     57  23  26 SW8G15      N/A
LISCO            N/A     43  30  59 CALM        N/A
BIG SPRINGS      N/A     41  32  71 W12         N/A
$$

...OBSERVATIONS IN NORTH CENTRAL NEBRASKA...

CITY           SKY/WX    TMP DP  RH WIND       PRES   REMARKS
VALENTINE      MOSUNNY   47  30  51 SW5       29.71S
THEDFORD       PTSUNNY   53  28  37 W12       29.76F
AINSWORTH      SUNNY     50  29  44 SW13      29.72S
O`NEILL        MOSUNNY   45  32  60 S8        29.73F
ORD            MOSUNNY   33  23  66 CALM      29.77F
BROKEN BOW     SUNNY     51  30  44 W6        29.78F
BROWNLEE         N/A     47  31  55 W14         N/A
SPRINGVIEW       N/A     32  27  82 CALM        N/A
BREWSTER         N/A     50  28  42 W14         N/A
SARGENT          N/A     34  27  75 CALM        N/A
COMSTOCK         N/A     49  30  48 W10         N/A
CHAMBERS         N/A     45  28  51 S7G15       N/A
EWING            N/A     40  31  70 S3          N/A
$$

...OBSERVATIONS IN SOUTHWEST NEBRASKA AND FAR NORTHEAST COLORADO...

CITY           SKY/WX    TMP DP  RH WIND       PRES   REMARKS
WRAY           FAIR      50  29  44 W9        29.89S
HOLYOKE        FAIR      52  32  46 W8        29.87F
IMPERIAL       MOSUNNY   47  26  44 W6        29.85F
OGALLALA       MOSUNNY   40  33  76 W10       29.83F WCI  33
NORTH PLATTE   MOSUNNY   39  29  67 NW5       29.82F
MCCOOK         SUNNY     44  26  49 SW9       29.86F
LEXINGTON      SUNNY     42  30  62 NW3       29.82F
PAXTON           N/A     38  33  83 CALM        N/A
BRADY            N/A     39  30  71 CALM        N/A
GOTHENBURG       N/A     44  29  55 NW5         N/A
CALLAWAY         N/A     55  30  38 SW16        N/A
$$

...NORTH PLATTE AREA...

CITY           SKY/WX    TMP DP  RH WIND       PRES   REMARKS
AIRPORT        MOSUNNY   39  29  67 NW5       29.82F
DOWNTOWN         N/A     42  30  62 CALM        N/A
$$

...SOME WEATHER OBSERVATIONS FROM AROUND THE REGION...

CITY           SKY/WX    TMP DP  RH WIND       PRES   REMARKS
DENVER         CLOUDY    49  21  33 S9        29.95S
LARAMIE        CLOUDY    44  14  29 SW10      30.03R
CHEYENNE       PTSUNNY   54  12  18 W21       29.92F
SCOTTSBLUFF    MOSUNNY   57  24  28 W12       29.83S
RAPID CITY     MOSUNNY   43  31  62 CALM      29.70F
PIERRE         MOSUNNY   23  17  78 NE3       29.70F
WINNER         FAIR      49  29  46 SW6       29.68F
SIOUX FALLS    CLOUDY    24  20  84 E5        29.81S WCI  18
OMAHA          PTSUNNY   35  25  66 S12       29.86F WCI  27
GRAND ISLAND   PTSUNNY   42  29  59 SW6       29.81F
KANSAS CITY    MOSUNNY   45  28  51 SW17      29.95F
WICHITA        MOSUNNY   49  31  49 S21       29.98F
HAYS           SUNNY     52  28  40 SW8       29.89F
LIBERAL        MOSUNNY   55  34  44 SW9       29.98F
GOODLAND       MOSUNNY   52  22  30 W7        29.91R
$$



USA.gov is the U.S. government's official web portal to all federal, state and local government web resources and services.